www.pogodaiklimat.ru

Погода и климат >> Архив погоды >> Россия >> Якутия >> Верхоянский Перевоз


ПОГОДА в Верхоянском Перевозе

  • Прогноз погоды в Верхоянском Перевозе
  • Монитор погоды в Верхоянском Перевозе

АРХИВ ПОГОДЫ в Верхоянском Перевозе

Время (UTC), дата Ветер
(напр.,м/с)
 
Видим.   Явления Облачность Т
(С)
Тd
(С)
f
(%)
Тe
(С)
Тes
(С)
Комфортность P
(гПа)
Po
(гПа)
Тmin
(С)
Tmax
(С)
R
(мм)
R24
(мм)
S
(см)
18 9.06 штиль 0 50 км 9/9 600 м
[Cb cap]
+12.7 +8.5 76 +12 +12 1009.9 999.0
21 9.06 В 3 50 км 5/0
[Ac trans Cs]
+13.6 +9.3 75 +12 +14 1012.0 1001.1
00 10.06 В 2 50 км 3/0
[Ci fib]
+17.1 +7.6 54 +17 +26 1012.5 1001.8 +11.1
03 10.06 В 2 50 км 8/1 600 м
[Cb cap Cs]
+20.1 +8.0 46 +22 +32 комфорт 1011.6 1001.0
06 10.06 В 2 50 км 8/4 600 м
[Cb cap Cs]
+23.3 +8.3 38 +24 +29 комфорт 1009.0 998.5
09 10.06 В 1 50 км 8/4 600 м
[Cb cap Cs]
+23.5 +9.6 41 +24 +26 комфорт 1008.2 997.7
12 10.06 Ю 1 50 км 6/0
[Ac trans Cs]
+20.0 +7.6 45 +22 +22 комфорт 1008.4 997.8 +24.8
15 10.06 штиль 0 50 км 3/1 600 м
[Sc Ac trans]
+10.9 +7.6 80 +10 +10 1009.3 998.3
18 10.06 штиль 0 50 км 3/0
[Ac trans]
+8.4 +6.5 88 +8 +8 1009.7 998.7
21 10.06 В 2 50 км 4/0
[Ac trans Ci sp]
+12.2 +7.7 74 +11 +13 1010.4 999.5
00 11.06 В 3 50 км 3/0
[Ci fib]
+16.1 +8.7 61 +16 +23 1010.7 1000.0 +8.4
03 11.06 В 3 50 км 5/3 600 м
[Cu med, cong Ci sp]
+20.3 +7.5 44 +22 +29 комфорт 1008.8 998.2
06 11.06 Ю 2 50 км 3/3 600 м
[Cu med, cong]
+23.2 +7.3 36 +24 +31 комфорт 1007.4 996.9
09 11.06 В 2 50 км 1/1 600 м
[Cu med, cong]
+23.2 +4.7 30 +23 +26 комфорт 1005.4 994.9
12 11.06 Ю 1 50 км ясно +20.1 +5.0 37 +22 +22 комфорт 1006.2 995.7 +23.8
15 11.06 В 1 50 км 3/0
[Cs]
+16.6 +5.7 48 +18 +18 1006.1 995.4
18 11.06 Ю 1 50 км 3/1 600 м
[Sc Cs]
+12.3 +3.9 56 +13 +13 1006.6 995.8
21 11.06 В 2 50 км 5/0
[Cs]
+13.7 +7.4 66 +13 +15 1006.8 996.0
00 12.06 В 3 50 км 5/0
[Cs]
+17.7 +7.4 51 +18 +24 1006.9 996.2 +12.3
03 12.06 В 3 50 км 3/0
[Ci fib]
+23.3 +8.5 39 +25 +35 комфорт 1005.9 995.4
06 12.06 В 3 50 км ясно +24.9 +4.3 26 +24 +32 комфорт 1003.8 993.4
09 12.06 В 3 50 км 4/0
[Ci sp]
+24.4 +3.7 26 +24 +26 комфорт 1004.1 993.7
12 12.06 Ю 1 50 км 5/0
[Ci fib]
+21.3 +4.0 32 +22 +22 комфорт 1013.7 993.2 +25.2
15 12.06 В 1 50 км 3/1 600 м
[Sc Ci fib]
+16.6 +7.2 54 +18 +18 1005.4 994.7
18 12.06 ЮВ 1 50 км 3/1 600 м
[Sc Ci fib]
+14.5 +7.4 62 +15 +15 1006.0 995.3
21 12.06 В 2 50 км 4/0
[Ci fib]
+15.1 +5.2 52 +15 +17 1006.9 996.2
00 13.06 В 3 50 км 5/1 600 м
[Sc Ci fib]
+16.5 +7.8 56 +16 +22 1008.5 997.8 +14.5
03 13.06 В 2 50 км 4/3 600 м
[Cu Sc Ac cuf]
+21.7 +4.0 31 +22 +30 комфорт 1008.1 997.5
06 13.06 В 3 50 км 4/0
[Cs]
+23.3 +2.7 26 +23 +30 комфорт 1008.0 997.5
09 13.06 В 1 50 км 8/0
[Ci sp]
+23.1 +3.3 27 +23 +26 комфорт 1009.2 998.7
12 13.06 З 2 50 км 8/0
[Ci sp]
+15.5 +9.5 67 +15 +16 1009.9 999.1 +23.8
15 13.06 штиль 0 50 км 3/0
[Ac trans Ci fib]
+7.8 +6.9 94 +7 +7 1012.8 1001.7
18 13.06 штиль 0 50 км ясно +6.2 +5.5 95 +5 +5 1013.9 1002.7
21 13.06 З 1 50 км 3/0
[Ac trans]
+8.2 +6.9 92 +7 +10 1015.1 1004.0
00 14.06 ЮЗ 2 50 км 8/6 600 м
[Cb cap Ac trans]
+12.3 +8.5 78 +11 +14 1015.1 1004.2 +5.7
03 14.06 С 1 50 км 3/1 600 м
[Cb cap Ac lent]
+15.1 +9.1 67 +16 +27 1015.1 1004.2
06 14.06 З 1 50 км 4/1 600 м
[Cb cap Cs]
+19.3 +10.2 56 +21 +31 комфорт 1014.3 1003.6
09 14.06 З 1 50 км 3/1 600 м
[Cb cap Cs]
+18.3 +9.2 55 +20 +23 1013.5 1002.8
12 14.06 З 1 50 км 3/0
[Ac trans]
+16.2 +8.4 60 +17 +17 1013.7 1002.9 +19.8
15 14.06 штиль 0 50 км 3/3 600 м
[Sc]
+8.4 +7.2 92 +7 +7 1014.0 1002.9
18 14.06 штиль 0 50 км 1/1 600 м
[Sc]
+7.1 +6.4 95 +6 +6 1014.4 1003.2
21 14.06 штиль 0 50 км 4/0
[Ac lent Ci sp]
+9.9 +7.8 87 +9 +12 1014.6 1003.6
00 15.06 С 1 50 км 5/3 600 м
[Sc Ac trans Ci fib]
+17.3 +8.1 55 +18 +25 1014.6 1003.8 +5.3
03 15.06 В 2 50 км 8/3 600 м
[Cb cap Ac cast Ci sp]
+20.6 +8.9 47 +23 +29 комфорт 1012.0 1001.4
06 15.06 С 1 50 км 6/5 600 м
[Cb cap Ci sp]
+22.5 +7.6 38 +23 +29 комфорт 1011.5 1001.0
09 15.06 С 2 50 км 5/4 600 м
[Cb cap Ac trans]
+22.5 +3.8 29 +22 +24 комфорт 1009.8 999.3
12 15.06 штиль 0 50 км ясно +18.6 +8.1 50 +19 +19 1010.7 1000.0 +23.6
15 15.06 штиль 0 50 км 1/1 600 м
[Sc]
+10.0 +9.0 93 +9 +9 1011.1 1000.1
18 15.06 штиль 0 50 км ясно +9.2 +8.4 95 +8 +8 1011.7 1000.7
21 15.06 В 3 50 км ясно +14.3 +10.2 76 +13 +15 1012.9 1002.1
00 16.06 В 4 50 км 3/0
[Ac trans Cs]
+16.1 +10.0 67 +15 +21 1014.4 1003.6 +6.8
03 16.06 В 3 50 км ясно +19.5 +10.7 57 +21 +32 комфорт 1013.7 1003.0
06 16.06 В 3 50 км 4/4 600 м
[Cb cap]
+22.3 +11.8 51 +25 +29 комфорт 1011.9 1001.4
09 16.06 В 1 50 км 4/1 600 м
[Cb cap Cs]
+22.8 +10.0 44 +25 +28 комфорт 1011.2 1000.7
12 16.06 штиль 0 50 км 9/8 600 м
[Cb cap Ac trans]
+20.8 +12.1 57 +23 +23 комфорт 1011.7 1001.1 +23.5
15 16.06 З 1 50 км 5/5 600 м
[Sc]
+15.1 +12.4 84 +16 +16 1011.8 1001.0

 

Местоположение метеостанции Верхоянский Перевоз (Якутия, Россия): широта 63.32 долгота 132.00 высота над уровнем моря 91 м.

В архиве по умолчанию представлена погода в Верхоянском Перевозе за последнюю неделю. Архивные данные за месяц целиком и за предыдущие месяцы, начиная с января 2011 года, Вы можете получить, выбрав интересующий диапазон дат из раскрывающегося списка и нажав кнопку "Ввод!".


*Определитесь, кто Вы:
робот инопланетянин человек

Внимание! Время в таблицах - всемирное. Для получения местного времени необходимо прибавить поправку, которая равна 9 ч.

Смотрите также архив погоды в соседних городах и на ближайших метеорологических станциях:

Погода в Сеген-Кюеле (Якутия, Россия) (113 км)
Погода в Ытык-Кюёле (Якутия, Россия) (130 км)
Погода в Батамае (Якутия, Россия) (131 км)
Погода в Крест-Хальджае (Якутия, Россия) (133 км)
Погода в Намцах (Якутия, Россия) (138 км)
Погода в Чурапче (Якутия, Россия) (147 км)
Погода в Якутске (Якутия, Россия) (191 км)
Погода в Томпо (Якутия, Россия) (200 км)
Погода в Сангаре (Якутия, Россия) (238 км)
Погода в Себян-Кюеле (Якутия, Россия) (240 км)

Пояснения к столбцам:

Ветер - указаны скорость ветра в м/с - средняя за 10 мин, порывы в срок и между сроками (в фигурных скобках) и направление, откуда дует ветер: С - северный, СВ - северо-восточный, В - восточный, ЮВ - юго-восточный, Ю - южный, ЮЗ - юго-западный, З - западный, СЗ - северо-западный.
Видимость - горизонтальная дальность видимости в метрах или километрах. При видимости от 1 до 10 км при отсутствии осадков обычно наблюдается дымка, при ухудшении видимости до 1 км и менее - туман. В сухую погоду видимость может ухудшаться дымом, пылью или мглою.
Явления - указаны атмосферные явления, наблюдавшиеся в срок или в последний час перед сроком; фигурными скобками обозначены явления, наблюдавшиеся между сроками (за 1-3 часа до срока); квадратными скобками обозначены град или гололедные отложения с указанием их диаметра в мм.
Облачность - указаны через наклонную черту общая и нижняя облачность в баллах и высота нижней границы облаков в метрах; квадратными скобками обозначены формы облаков: Ci - перистые, Cs - перисто-слоистые, Cc - перисто-кучевые, Ac - высококучевые, As - высокослоистые, Sc - слоисто-кучевые, Ns - слоисто-дождевые, Cu - кучевые, Cb - кучево-дождевые. Подробнее классификацию облаков см. в Атласе облаков (PDF).
T - Температура воздуха - температура, измеренная на высоте 2 м над землей.
Td - Температура точки росы - температура, при понижении до которой содержащийся в воздухе водяной пар достигнет насыщения.
f - Относительная влажность воздуха - влажноcть воздуха, измеренная на высоте 2 м над землей.
Te - Эффективная температура - температура, которую ощущает одетый по сезону человек в тени. Характеристика душности погоды. При расчете учитывается влияние влажности воздуха и скорости ветра на теплоощущения человека.
Tes - Эффективная температура на солнце - температура, которую ощущает человек, с поправкой на солнечный нагрев. Характеристика знойности погоды. Зависит от высоты солнца над горизонтом, облачности и скорости ветра. Ночью, в пасмурную погоду, а также при ветре 12 м/с и более поправка равна нулю.
P - Атмосферное давление - приведенное к уровню моря атмосферное давление.
Po - Атмосферное давление - измеренное на уровне метеостанции атмосферное давление.
Tmin - Минимальная температура - минимум температуры воздуха на высоте 2 м над землей.
Tmax - Максимальная температура - максимум температуры воздуха на высоте 2 м над землей.
R - Количество осадков - Количество выпавших осадков за период времени, мм. При наведении курсора мыши на число - период времени, за который выпало указанное количество осадков.
R24 - Количество осадков - Количество выпавших осадков за 24 часа, мм.
S - Снежный покров - Высота снежного покрова, см. При наведении курсора мыши на число - состояние снежного покрова и степень покрытия местности в баллах.